Location: Schommer Observatory
(40.5200°N, 74.4500°W)
Time: 03:54:20
(UTC-05:00)

Vanguard 1 - Visible Passes

Search period start: 18 December 2017 00:00
Search period end: 28 December 2017 00:00
Orbit: 650 x 3834 km, 34.2° (Epoch: 16 December)

Date Brightness Start Highest point End Pass type
(mag) Time Alt. Az. Time Alt. Az. Time Alt. Az.
18 Dec 14.3 04:59:24 10° S 05:16:53 29° SE 05:33:30 10° E visible
19 Dec 14.1 05:18:36 10° SSW 05:37:45 36° SE 05:55:44 10° E visible
20 Dec 14.3 03:24:41 10° SSE 03:35:32 16° SE 03:46:52 10° E visible
20 Dec 13.9 05:38:20 10° SSW 05:58:43 43° SE 06:17:33 10° E visible
21 Dec 14.1 03:41:44 10° S 03:56:03 23° SE 04:11:17 10° E visible
21 Dec 13.7 05:58:29 10° SW 06:19:48 51° SSE 06:39:08 10° E visible
22 Dec 14.0 04:00:13 10° S 04:16:38 30° SE 04:34:18 10° E visible
22 Dec 13.6 06:18:59 10° SW 06:41:00 57° SSE 07:00:34 10° E visible
23 Dec 13.8 04:19:27 10° SSW 04:37:20 37° SE 04:56:38 10° E visible
23 Dec 13.4 06:39:46 10° SW 07:02:20 63° SSE 07:21:54 10° E visible
24 Dec 14.1 02:26:18 10° SSE 02:35:49 15° SE 02:46:25 10° E visible
24 Dec 13.7 04:39:13 10° SSW 04:58:09 44° SE 05:18:34 10° E visible
25 Dec 13.9 02:43:22 10° S 02:56:07 22° SE 03:11:03 10° E visible
25 Dec 13.5 04:59:23 10° SW 05:19:07 51° SSE 05:40:15 10° E visible
26 Dec 13.8 03:01:54 10° S 03:16:31 29° SE 03:34:12 10° E visible
26 Dec 13.4 05:19:51 10° SW 05:40:15 58° SSE 06:01:48 10° E visible
27 Dec 13.6 03:21:37 11° SSW 03:37:02 36° SE 03:56:39 10° E visible
27 Dec 13.3 05:40:35 10° SW 06:01:31 64° SSE 06:23:15 10° E visible
